Time,TemperatureF,DewpointF,PressureIn,WindDirection,WindDirectionDegrees,WindSpeedMPH,WindSpeedGustMPH,Humidity,HourlyPrecipIn,Conditions,Clouds,dailyrainin,SoftwareType,DateUTC
2013-03-16 00:01:00,39.0,33.0,27.01,North,360,0.0,0.0,78,0.00,,,0.00,Rainwise IP-100,2013-03-16 06:01:00,
2013-03-16 00:06:00,38.0,32.0,27.02,North,360,0.0,0.0,77,0.00,,,0.00,Rainwise IP-100,2013-03-16 06:06:00,
2013-03-16 00:11:00,38.0,32.0,27.02,ENE,67,0.0,2.0,78,0.00,,,0.00,Rainwise IP-100,2013-03-16 06:11:00,
2013-03-16 00:16:00,38.0,32.0,27.02,SSE,157,0.0,3.0,80,0.00,,,0.00,Rainwise IP-100,2013-03-16 06:16:00,
2013-03-16 00:22:00,38.0,32.0,27.02,WSW,247,0.0,3.0,80,0.00,,,0.00,Rainwise IP-100,2013-03-16 06:22:00,
2013-03-16 00:27:00,37.0,31.0,27.02,WSW,247,0.0,2.0,79,0.00,,,0.00,Rainwise IP-100,2013-03-16 06:27:00,
2013-03-16 00:32:00,37.0,32.0,27.02,WSW,247,0.0,0.0,82,0.00,,,0.00,Rainwise IP-100,2013-03-16 06:32:00,
2013-03-16 00:37:00,37.0,32.0,27.03,WSW,247,0.0,0.0,83,0.00,,,0.00,Rainwise IP-100,2013-03-16 06:37:00,
2013-03-16 00:42:00,36.0,31.0,27.03,WSW,247,0.0,0.0,83,0.00,,,0.00,Rainwise IP-100,2013-03-16 06:42:00,
2013-03-16 00:47:00,36.0,32.0,27.03,WSW,247,0.0,0.0,85,0.00,,,0.00,Rainwise IP-100,2013-03-16 06:47:00,
2013-03-16 00:52:00,37.0,32.0,27.03,SSW,202,2.0,3.0,84,0.00,,,0.00,Rainwise IP-100,2013-03-16 06:52:00,
2013-03-16 00:57:00,37.0,32.0,27.02,South,180,0.0,4.0,83,0.00,,,0.00,Rainwise IP-100,2013-03-16 06:57:00,
2013-03-16 01:02:00,37.0,32.0,27.02,South,180,0.0,4.0,83,0.00,,,0.00,Rainwise IP-100,2013-03-16 07:02:00,
2013-03-16 01:07:00,37.0,32.0,27.02,East,90,1.0,3.0,82,0.00,,,0.00,Rainwise IP-100,2013-03-16 07:07:00,
2013-03-16 01:12:00,36.0,31.0,27.02,East,90,0.0,2.0,82,0.00,,,0.00,Rainwise IP-100,2013-03-16 07:12:00,
2013-03-16 01:17:00,36.0,31.0,27.03,East,90,0.0,2.0,83,0.00,,,0.00,Rainwise IP-100,2013-03-16 07:17:00,
2013-03-16 01:22:00,36.0,31.0,27.03,East,90,0.0,1.0,82,0.00,,,0.00,Rainwise IP-100,2013-03-16 07:22:00,
2013-03-16 01:27:00,35.0,31.0,27.02,East,90,0.0,0.0,84,0.00,,,0.00,Rainwise IP-100,2013-03-16 07:27:00,
2013-03-16 01:32:00,35.0,31.0,27.02,East,90,0.0,0.0,85,0.00,,,0.00,Rainwise IP-100,2013-03-16 07:32:00,
2013-03-16 01:37:00,35.0,31.0,27.03,East,90,0.0,0.0,85,0.00,,,0.00,Rainwise IP-100,2013-03-16 07:37:00,
2013-03-16 01:42:00,35.0,31.0,27.03,East,90,0.0,0.0,86,0.00,,,0.00,Rainwise IP-100,2013-03-16 07:42:00,
2013-03-16 01:47:00,35.0,31.0,27.02,East,90,0.0,0.0,86,0.00,,,0.00,Rainwise IP-100,2013-03-16 07:47:00,
2013-03-16 01:52:00,35.0,31.0,27.02,East,90,0.0,0.0,86,0.00,,,0.00,Rainwise IP-100,2013-03-16 07:52:00,
2013-03-16 01:57:00,34.0,31.0,27.03,East,90,0.0,0.0,86,0.00,,,0.00,Rainwise IP-100,2013-03-16 07:57:00,
2013-03-16 02:02:00,34.0,31.0,27.03,East,90,0.0,0.0,87,0.00,,,0.00,Rainwise IP-100,2013-03-16 08:02:00,
2013-03-16 02:07:00,34.0,32.0,27.03,East,90,0.0,0.0,88,0.00,,,0.00,Rainwise IP-100,2013-03-16 08:07:00,
2013-03-16 02:12:00,34.0,32.0,27.03,East,90,0.0,0.0,88,0.00,,,0.00,Rainwise IP-100,2013-03-16 08:12:00,
2013-03-16 02:17:00,35.0,32.0,27.02,South,180,4.0,4.0,89,0.00,,,0.00,Rainwise IP-100,2013-03-16 08:17:00,
2013-03-16 02:22:00,35.0,31.0,27.02,SE,135,0.0,6.0,87,0.00,,,0.00,Rainwise IP-100,2013-03-16 08:22:00,
2013-03-16 02:27:00,35.0,31.0,27.01,SE,135,0.0,1.0,87,0.00,,,0.00,Rainwise IP-100,2013-03-16 08:27:00,
2013-03-16 02:32:00,36.0,32.0,27.01,NNW,337,4.0,4.0,85,0.00,,,0.00,Rainwise IP-100,2013-03-16 08:32:00,
2013-03-16 02:37:00,36.0,32.0,27.01,WNW,292,1.0,4.0,84,0.00,,,0.00,Rainwise IP-100,2013-03-16 08:37:00,
2013-03-16 02:42:00,36.0,32.0,27.01,NNW,337,2.0,3.0,84,0.00,,,0.00,Rainwise IP-100,2013-03-16 08:42:00,
2013-03-16 02:47:00,36.0,32.0,27.01,NNW,337,1.0,3.0,84,0.00,,,0.00,Rainwise IP-100,2013-03-16 08:47:00,
2013-03-16 02:52:00,36.0,32.0,27.01,SE,135,3.0,5.0,85,0.00,,,0.00,Rainwise IP-100,2013-03-16 08:52:00,
2013-03-16 02:57:00,36.0,32.0,27.01,WNW,292,0.0,5.0,84,0.00,,,0.00,Rainwise IP-100,2013-03-16 08:57:00,
2013-03-16 03:02:00,36.0,32.0,27.01,SE,135,0.0,5.0,84,0.00,,,0.00,Rainwise IP-100,2013-03-16 09:02:00,
2013-03-16 03:07:00,37.0,32.0,27.01,SE,135,1.0,4.0,84,0.00,,,0.00,Rainwise IP-100,2013-03-16 09:07:00,
2013-03-16 03:12:00,37.0,32.0,27.01,SE,135,3.0,3.0,84,0.00,,,0.00,Rainwise IP-100,2013-03-16 09:12:00,
2013-03-16 03:17:00,37.0,32.0,27.00,SE,135,0.0,3.0,84,0.00,,,0.00,Rainwise IP-100,2013-03-16 09:17:00,
2013-03-16 03:22:00,37.0,32.0,27.00,SE,135,0.0,1.0,84,0.00,,,0.00,Rainwise IP-100,2013-03-16 09:22:00,
2013-03-16 03:27:00,37.0,32.0,27.01,SE,135,0.0,2.0,84,0.00,,,0.00,Rainwise IP-100,2013-03-16 09:27:00,
2013-03-16 03:32:00,37.0,32.0,27.01,SE,135,0.0,3.0,84,0.00,,,0.00,Rainwise IP-100,2013-03-16 09:32:00,
2013-03-16 03:37:00,37.0,32.0,27.00,WSW,247,0.0,3.0,84,0.00,,,0.00,Rainwise IP-100,2013-03-16 09:37:00,
2013-03-16 03:43:00,37.0,32.0,27.00,SE,135,1.0,4.0,84,0.00,,,0.00,Rainwise IP-100,2013-03-16 09:43:00,
2013-03-16 03:48:00,37.0,32.0,26.99,SE,135,2.0,2.0,84,0.00,,,0.00,Rainwise IP-100,2013-03-16 09:48:00,
2013-03-16 03:53:00,37.0,32.0,26.99,SE,135,0.0,3.0,84,0.00,,,0.00,Rainwise IP-100,2013-03-16 09:53:00,
2013-03-16 03:58:00,37.0,32.0,26.99,SE,135,0.0,0.0,84,0.00,,,0.00,Rainwise IP-100,2013-03-16 09:58:00,
2013-03-16 04:03:00,37.0,32.0,26.99,NW,315,3.0,4.0,84,0.00,,,0.00,Rainwise IP-100,2013-03-16 10:03:00,
2013-03-16 04:08:00,37.0,32.0,26.99,NW,315,3.0,4.0,84,0.00,,,0.00,Rainwise IP-100,2013-03-16 10:08:00,
2013-03-16 04:13:00,37.0,32.0,26.99,WNW,292,3.0,5.0,84,0.00,,,0.00,Rainwise IP-100,2013-03-16 10:13:00,
2013-03-16 04:18:00,37.0,32.0,26.99,WNW,292,2.0,5.0,84,0.00,,,0.00,Rainwise IP-100,2013-03-16 10:18:00,
2013-03-16 04:23:00,37.0,32.0,26.99,WNW,292,3.0,5.0,84,0.00,,,0.00,Rainwise IP-100,2013-03-16 10:23:00,
2013-03-16 04:28:00,37.0,33.0,26.99,SE,135,0.0,6.0,86,0.00,,,0.00,Rainwise IP-100,2013-03-16 10:28:00,
2013-03-16 04:33:00,36.0,32.0,26.99,SE,135,2.0,2.0,86,0.00,,,0.00,Rainwise IP-100,2013-03-16 10:33:00,
2013-03-16 04:38:00,36.0,32.0,26.99,SE,135,0.0,2.0,86,0.00,,,0.00,Rainwise IP-100,2013-03-16 10:38:00,
2013-03-16 04:43:00,36.0,32.0,26.99,SE,135,0.0,0.0,86,0.00,,,0.00,Rainwise IP-100,2013-03-16 10:43:00,
2013-03-16 04:48:00,36.0,32.0,26.99,ENE,67,0.0,1.0,86,0.00,,,0.00,Rainwise IP-100,2013-03-16 10:48:00,
2013-03-16 04:53:00,36.0,32.0,26.99,SE,135,2.0,2.0,87,0.00,,,0.00,Rainwise IP-100,2013-03-16 10:53:00,
2013-03-16 04:58:00,36.0,32.0,26.99,SE,135,1.0,3.0,87,0.00,,,0.00,Rainwise IP-100,2013-03-16 10:58:00,
2013-03-16 05:03:00,36.0,32.0,26.99,West,270,0.0,4.0,87,0.00,,,0.00,Rainwise IP-100,2013-03-16 11:03:00,
2013-03-16 05:08:00,36.0,32.0,26.99,West,270,0.0,3.0,87,0.00,,,0.00,Rainwise IP-100,2013-03-16 11:08:00,
2013-03-16 05:13:00,36.0,32.0,26.99,West,270,0.0,1.0,87,0.00,,,0.00,Rainwise IP-100,2013-03-16 11:13:00,
2013-03-16 05:18:00,36.0,32.0,26.99,West,270,0.0,0.0,87,0.00,,,0.00,Rainwise IP-100,2013-03-16 11:18:00,
2013-03-16 05:23:00,36.0,32.0,26.99,NE,45,0.0,5.0,87,0.00,,,0.00,Rainwise IP-100,2013-03-16 11:23:00,
2013-03-16 05:28:00,36.0,32.0,26.98,NNE,22,2.0,4.0,87,0.00,,,0.00,Rainwise IP-100,2013-03-16 11:28:00,
2013-03-16 05:33:00,36.0,32.0,26.98,NNE,22,2.0,4.0,87,0.00,,,0.00,Rainwise IP-100,2013-03-16 11:33:00,
2013-03-16 05:38:00,36.0,32.0,26.98,WSW,247,1.0,3.0,87,0.00,,,0.00,Rainwise IP-100,2013-03-16 11:38:00,
2013-03-16 05:43:00,36.0,32.0,26.98,WSW,247,0.0,2.0,88,0.00,,,0.00,Rainwise IP-100,2013-03-16 11:43:00,
2013-03-16 05:48:00,36.0,33.0,26.98,SSE,157,3.0,3.0,89,0.00,,,0.00,Rainwise IP-100,2013-03-16 11:48:00,
2013-03-16 05:53:00,36.0,33.0,26.98,SSE,157,0.0,4.0,89,0.00,,,0.00,Rainwise IP-100,2013-03-16 11:53:00,
2013-03-16 05:58:00,36.0,32.0,26.97,SSE,157,0.0,2.0,88,0.00,,,0.00,Rainwise IP-100,2013-03-16 11:58:00,
2013-03-16 06:03:00,36.0,32.0,26.97,SSE,157,0.0,0.0,88,0.00,,,0.00,Rainwise IP-100,2013-03-16 12:03:00,
2013-03-16 06:08:00,36.0,33.0,26.97,SSE,157,0.0,0.0,89,0.00,,,0.00,Rainwise IP-100,2013-03-16 12:08:00,
2013-03-16 06:13:00,35.0,32.0,26.97,SSE,157,0.0,0.0,89,0.00,,,0.00,Rainwise IP-100,2013-03-16 12:13:00,
2013-03-16 06:18:00,35.0,32.0,26.97,SSE,157,0.0,0.0,89,0.00,,,0.00,Rainwise IP-100,2013-03-16 12:18:00,
2013-03-16 06:23:00,35.0,32.0,26.97,SSE,157,0.0,0.0,89,0.00,,,0.00,Rainwise IP-100,2013-03-16 12:23:00,
2013-03-16 06:28:00,35.0,32.0,26.97,SSE,157,0.0,0.0,90,0.00,,,0.00,Rainwise IP-100,2013-03-16 12:28:00,
2013-03-16 06:33:00,35.0,32.0,26.97,SSE,157,0.0,0.0,89,0.00,,,0.00,Rainwise IP-100,2013-03-16 12:33:00,
2013-03-16 06:38:00,35.0,32.0,26.97,NW,315,2.0,5.0,90,0.00,,,0.00,Rainwise IP-100,2013-03-16 12:38:00,
2013-03-16 06:43:00,35.0,32.0,26.97,NW,315,0.0,4.0,90,0.00,,,0.00,Rainwise IP-100,2013-03-16 12:43:00,
2013-03-16 06:48:00,36.0,33.0,26.97,NW,315,0.0,0.0,90,0.00,,,0.00,Rainwise IP-100,2013-03-16 12:48:00,
2013-03-16 06:53:00,36.0,33.0,26.97,NW,315,0.0,0.0,90,0.00,,,0.00,Rainwise IP-100,2013-03-16 12:53:00,
2013-03-16 06:58:00,36.0,33.0,26.97,NW,315,0.0,4.0,90,0.00,,,0.00,Rainwise IP-100,2013-03-16 12:58:00,
2013-03-16 07:03:00,36.0,33.0,26.97,NW,315,0.0,0.0,89,0.00,,,0.00,Rainwise IP-100,2013-03-16 13:03:00,
2013-03-16 07:08:00,35.0,32.0,26.96,WNW,292,3.0,3.0,89,0.00,,,0.00,Rainwise IP-100,2013-03-16 13:08:00,
2013-03-16 07:13:00,35.0,32.0,26.96,WNW,292,0.0,3.0,89,0.00,,,0.00,Rainwise IP-100,2013-03-16 13:13:00,
2013-03-16 07:18:00,35.0,32.0,26.96,WNW,292,2.0,3.0,89,0.00,,,0.00,Rainwise IP-100,2013-03-16 13:18:00,
2013-03-16 07:23:00,35.0,32.0,26.96,SSE,157,3.0,3.0,90,0.00,,,0.00,Rainwise IP-100,2013-03-16 13:23:00,
2013-03-16 07:28:00,35.0,32.0,26.96,SSE,157,0.0,4.0,90,0.00,,,0.00,Rainwise IP-100,2013-03-16 13:28:00,
2013-03-16 07:33:00,35.0,32.0,26.96,SSE,157,0.0,0.0,90,0.00,,,0.00,Rainwise IP-100,2013-03-16 13:33:00,
2013-03-16 07:38:00,35.0,32.0,26.97,SSE,157,2.0,2.0,91,0.00,,,0.00,Rainwise IP-100,2013-03-16 13:38:00,
2013-03-16 07:43:00,35.0,32.0,26.97,SSE,157,0.0,3.0,91,0.00,,,0.00,Rainwise IP-100,2013-03-16 13:43:00,
2013-03-16 07:48:00,35.0,32.0,26.97,SSE,157,0.0,0.0,90,0.00,,,0.00,Rainwise IP-100,2013-03-16 13:48:00,
2013-03-16 07:53:00,35.0,32.0,26.97,SSE,157,0.0,0.0,90,0.00,,,0.00,Rainwise IP-100,2013-03-16 13:53:00,
2013-03-16 07:58:00,36.0,33.0,26.96,ESE,112,1.0,5.0,92,0.00,,,0.00,Rainwise IP-100,2013-03-16 13:58:00,
2013-03-16 08:03:00,36.0,35.0,26.96,ENE,67,6.0,7.0,93,0.00,,,0.00,Rainwise IP-100,2013-03-16 14:03:00,
2013-03-16 08:08:00,36.0,35.0,26.95,NE,45,3.0,7.0,94,0.00,,,0.00,Rainwise IP-100,2013-03-16 14:08:00,
2013-03-16 08:13:00,36.0,35.0,26.95,NE,45,1.0,5.0,94,0.00,,,0.00,Rainwise IP-100,2013-03-16 14:13:00,
2013-03-16 08:18:00,36.0,35.0,26.95,West,270,1.0,4.0,93,0.00,,,0.00,Rainwise IP-100,2013-03-16 14:18:00,
2013-03-16 08:23:00,36.0,35.0,26.95,SSW,202,0.0,3.0,94,0.00,,,0.00,Rainwise IP-100,2013-03-16 14:23:00,
2013-03-16 08:28:00,36.0,35.0,26.95,SSW,202,0.0,1.0,93,0.00,,,0.00,Rainwise IP-100,2013-03-16 14:28:00,
2013-03-16 08:33:00,36.0,35.0,26.95,SSW,202,0.0,0.0,94,0.00,,,0.00,Rainwise IP-100,2013-03-16 14:33:00,
2013-03-16 08:38:00,36.0,35.0,26.95,SSW,202,0.0,0.0,94,0.00,,,0.00,Rainwise IP-100,2013-03-16 14:38:00,
2013-03-16 08:43:00,36.0,35.0,26.95,SSW,202,0.0,0.0,95,0.00,,,0.00,Rainwise IP-100,2013-03-16 14:43:00,
2013-03-16 08:48:00,36.0,35.0,26.95,SSW,202,0.0,0.0,94,0.00,,,0.00,Rainwise IP-100,2013-03-16 14:48:00,
2013-03-16 08:53:00,36.0,35.0,26.95,WSW,247,1.0,4.0,95,0.00,,,0.00,Rainwise IP-100,2013-03-16 14:53:00,
2013-03-16 08:58:00,37.0,36.0,26.94,SW,225,0.0,3.0,95,0.00,,,0.00,Rainwise IP-100,2013-03-16 14:58:00,
2013-03-16 09:03:00,37.0,36.0,26.94,WSW,247,0.0,3.0,95,0.00,,,0.00,Rainwise IP-100,2013-03-16 15:03:00,
2013-03-16 09:08:00,37.0,36.0,26.94,South,180,0.0,3.0,95,0.00,,,0.00,Rainwise IP-100,2013-03-16 15:08:00,
2013-03-16 09:13:00,37.0,36.0,26.94,South,180,4.0,4.0,95,0.00,,,0.00,Rainwise IP-100,2013-03-16 15:13:00,
2013-03-16 09:18:00,38.0,36.0,26.93,South,180,0.0,4.0,93,0.00,,,0.00,Rainwise IP-100,2013-03-16 15:18:00,
2013-03-16 09:23:00,38.0,36.0,26.93,SSE,157,0.0,5.0,91,0.00,,,0.00,Rainwise IP-100,2013-03-16 15:23:00,
2013-03-16 09:28:00,38.0,36.0,26.93,SSE,157,0.0,3.0,91,0.00,,,0.00,Rainwise IP-100,2013-03-16 15:28:00,
2013-03-16 09:33:00,39.0,37.0,26.93,SW,225,0.0,3.0,90,0.00,,,0.00,Rainwise IP-100,2013-03-16 15:33:00,
2013-03-16 09:38:00,39.0,36.0,26.93,NNW,337,2.0,4.0,89,0.00,,,0.00,Rainwise IP-100,2013-03-16 15:38:00,
2013-03-16 09:43:00,40.0,37.0,26.93,NNW,337,0.0,4.0,89,0.00,,,0.00,Rainwise IP-100,2013-03-16 15:43:00,
2013-03-16 09:48:00,40.0,37.0,26.92,WSW,247,4.0,6.0,88,0.00,,,0.00,Rainwise IP-100,2013-03-16 15:48:00,
2013-03-16 09:53:00,40.0,36.0,26.92,WSW,247,0.0,5.0,85,0.00,,,0.00,Rainwise IP-100,2013-03-16 15:53:00,
2013-03-16 09:58:00,40.0,36.0,26.92,WNW,292,2.0,7.0,84,0.00,,,0.00,Rainwise IP-100,2013-03-16 15:58:00,
2013-03-16 10:03:00,40.0,36.0,26.92,WNW,292,1.0,6.0,83,0.00,,,0.00,Rainwise IP-100,2013-03-16 16:03:00,
2013-03-16 10:08:00,40.0,36.0,26.93,WSW,247,6.0,6.0,85,0.00,,,0.00,Rainwise IP-100,2013-03-16 16:08:00,
2013-03-16 10:13:00,40.0,36.0,26.93,West,270,0.0,6.0,85,0.00,,,0.00,Rainwise IP-100,2013-03-16 16:13:00,
2013-03-16 10:18:00,40.0,37.0,26.93,NW,315,2.0,6.0,86,0.00,,,0.00,Rainwise IP-100,2013-03-16 16:18:00,
2013-03-16 10:23:00,40.0,37.0,26.93,North,360,1.0,4.0,86,0.00,,,0.00,Rainwise IP-100,2013-03-16 16:23:00,
2013-03-16 10:28:00,41.0,38.0,26.92,North,360,6.0,6.0,87,0.00,,,0.00,Rainwise IP-100,2013-03-16 16:28:00,
2013-03-16 10:33:00,41.0,37.0,26.92,North,360,6.0,6.0,86,0.00,,,0.00,Rainwise IP-100,2013-03-16 16:33:00,
2013-03-16 10:38:00,41.0,37.0,26.92,North,360,5.0,6.0,86,0.00,,,0.00,Rainwise IP-100,2013-03-16 16:38:00,
2013-03-16 10:43:00,41.0,37.0,26.92,NNE,22,5.0,6.0,86,0.00,,,0.00,Rainwise IP-100,2013-03-16 16:43:00,
2013-03-16 10:48:00,41.0,37.0,26.92,NNE,22,6.0,7.0,86,0.00,,,0.00,Rainwise IP-100,2013-03-16 16:48:00,
2013-03-16 10:53:00,42.0,38.0,26.92,NNE,22,6.0,7.0,85,0.00,,,0.00,Rainwise IP-100,2013-03-16 16:53:00,
2013-03-16 10:58:00,43.0,38.0,26.90,NE,45,4.0,7.0,82,0.00,,,0.00,Rainwise IP-100,2013-03-16 16:58:00,
2013-03-16 11:03:00,44.0,37.0,26.90,ENE,67,4.0,6.0,77,0.00,,,0.00,Rainwise IP-100,2013-03-16 17:03:00,
2013-03-16 11:08:00,46.0,38.0,26.88,ENE,67,6.0,6.0,74,0.00,,,0.00,Rainwise IP-100,2013-03-16 17:08:00,
2013-03-16 11:14:00,47.0,37.0,26.88,ENE,67,2.0,6.0,70,0.00,,,0.00,Rainwise IP-100,2013-03-16 17:14:00,
2013-03-16 11:19:00,48.0,37.0,26.87,NNW,337,4.0,6.0,65,0.00,,,0.00,Rainwise IP-100,2013-03-16 17:19:00,
2013-03-16 11:24:00,48.0,35.0,26.87,NW,315,0.0,6.0,60,0.00,,,0.00,Rainwise IP-100,2013-03-16 17:24:00,
2013-03-16 11:29:00,48.0,35.0,26.85,NNW,337,0.0,3.0,60,0.00,,,0.00,Rainwise IP-100,2013-03-16 17:29:00,
2013-03-16 11:34:00,49.0,36.0,26.85,North,360,2.0,6.0,59,0.00,,,0.00,Rainwise IP-100,2013-03-16 17:34:00,
2013-03-16 11:39:00,49.0,36.0,26.85,North,360,2.0,6.0,60,0.00,,,0.00,Rainwise IP-100,2013-03-16 17:39:00,
2013-03-16 11:44:00,49.0,36.0,26.85,North,360,5.0,6.0,60,0.00,,,0.00,Rainwise IP-100,2013-03-16 17:44:00,
2013-03-16 11:49:00,49.0,35.0,26.85,NNW,337,2.0,6.0,58,0.00,,,0.00,Rainwise IP-100,2013-03-16 17:49:00,
2013-03-16 11:54:00,49.0,35.0,26.85,West,270,3.0,4.0,58,0.00,,,0.00,Rainwise IP-100,2013-03-16 17:54:00,
2013-03-16 11:59:00,49.0,35.0,26.85,SW,225,1.0,6.0,58,0.00,,,0.00,Rainwise IP-100,2013-03-16 17:59:00,
2013-03-16 12:04:00,49.0,35.0,26.85,West,270,0.0,6.0,58,0.00,,,0.00,Rainwise IP-100,2013-03-16 18:04:00,
2013-03-16 12:09:00,49.0,33.0,26.84,ENE,67,1.0,5.0,55,0.00,,,0.00,Rainwise IP-100,2013-03-16 18:09:00,
2013-03-16 12:14:00,50.0,35.0,26.84,NW,315,2.0,5.0,55,0.00,,,0.00,Rainwise IP-100,2013-03-16 18:14:00,
2013-03-16 12:19:00,51.0,35.0,26.83,North,360,6.0,6.0,52,0.00,,,0.00,Rainwise IP-100,2013-03-16 18:19:00,
2013-03-16 12:24:00,52.0,36.0,26.83,North,360,5.0,6.0,53,0.00,,,0.00,Rainwise IP-100,2013-03-16 18:24:00,
2013-03-16 12:29:00,52.0,35.0,26.81,WNW,292,4.0,6.0,52,0.00,,,0.00,Rainwise IP-100,2013-03-16 18:29:00,
2013-03-16 12:34:00,51.0,35.0,26.81,West,270,5.0,9.0,53,0.00,,,0.00,Rainwise IP-100,2013-03-16 18:34:00,
2013-03-16 12:39:00,50.0,31.0,26.82,West,270,7.0,12.0,47,0.00,,,0.00,Rainwise IP-100,2013-03-16 18:39:00,
2013-03-16 12:44:00,50.0,31.0,26.82,WSW,247,4.0,9.0,48,0.00,,,0.00,Rainwise IP-100,2013-03-16 18:44:00,
2013-03-16 12:49:00,51.0,32.0,26.82,SSE,157,3.0,8.0,48,0.00,,,0.00,Rainwise IP-100,2013-03-16 18:49:00,
2013-03-16 12:54:00,51.0,32.0,26.82,West,270,7.0,9.0,48,0.00,,,0.00,Rainwise IP-100,2013-03-16 18:54:00,
2013-03-16 12:59:00,51.0,32.0,26.81,West,270,4.0,8.0,48,0.00,,,0.00,Rainwise IP-100,2013-03-16 18:59:00,
2013-03-16 13:04:00,51.0,32.0,26.81,WSW,247,6.0,15.0,47,0.00,,,0.00,Rainwise IP-100,2013-03-16 19:04:00,
2013-03-16 13:09:00,50.0,32.0,26.81,SSE,157,4.0,9.0,50,0.00,,,0.00,Rainwise IP-100,2013-03-16 19:09:00,
2013-03-16 13:14:00,49.0,32.0,26.81,West,270,9.0,17.0,52,0.06,,,0.01,Rainwise IP-100,2013-03-16 19:14:00,
2013-03-16 13:19:00,48.0,36.0,26.82,WNW,292,8.0,15.0,62,0.06,,,0.01,Rainwise IP-100,2013-03-16 19:19:00,
2013-03-16 13:24:00,48.0,36.0,26.82,NNW,337,6.0,10.0,63,0.00,,,0.01,Rainwise IP-100,2013-03-16 19:24:00,
2013-03-16 13:29:00,47.0,35.0,26.83,West,270,9.0,12.0,63,0.00,,,0.01,Rainwise IP-100,2013-03-16 19:29:00,
2013-03-16 13:34:00,48.0,36.0,26.83,NNW,337,7.0,12.0,62,0.00,,,0.01,Rainwise IP-100,2013-03-16 19:34:00,
2013-03-16 13:39:00,48.0,35.0,26.83,WNW,292,12.0,14.0,58,0.00,,,0.01,Rainwise IP-100,2013-03-16 19:39:00,
2013-03-16 13:44:00,47.0,33.0,26.83,NW,315,8.0,17.0,60,0.00,,,0.01,Rainwise IP-100,2013-03-16 19:44:00,
2013-03-16 13:49:00,47.0,35.0,26.82,NNW,337,3.0,13.0,63,0.00,,,0.01,Rainwise IP-100,2013-03-16 19:49:00,
2013-03-16 13:54:00,48.0,35.0,26.82,NW,315,10.0,12.0,60,0.00,,,0.01,Rainwise IP-100,2013-03-16 19:54:00,
2013-03-16 13:59:00,48.0,36.0,26.82,North,360,6.0,12.0,61,0.00,,,0.01,Rainwise IP-100,2013-03-16 19:59:00,
2013-03-16 14:04:00,48.0,35.0,26.81,NNW,337,7.0,12.0,60,0.00,,,0.01,Rainwise IP-100,2013-03-16 20:04:00,
2013-03-16 14:09:00,48.0,35.0,26.81,North,360,5.0,11.0,58,0.00,,,0.01,Rainwise IP-100,2013-03-16 20:09:00,
2013-03-16 14:14:00,48.0,35.0,26.80,NNW,337,12.0,12.0,58,0.00,,,0.01,Rainwise IP-100,2013-03-16 20:14:00,
2013-03-16 14:19:00,48.0,32.0,26.80,West,270,8.0,15.0,53,0.00,,,0.01,Rainwise IP-100,2013-03-16 20:19:00,
2013-03-16 14:24:00,48.0,32.0,26.80,WSW,247,7.0,16.0,54,0.00,,,0.01,Rainwise IP-100,2013-03-16 20:24:00,
2013-03-16 14:29:00,48.0,33.0,26.80,WNW,292,4.0,16.0,55,0.00,,,0.01,Rainwise IP-100,2013-03-16 20:29:00,
2013-03-16 14:34:00,48.0,33.0,26.79,WNW,292,10.0,12.0,55,0.00,,,0.01,Rainwise IP-100,2013-03-16 20:34:00,
2013-03-16 14:39:00,47.0,32.0,26.79,West,270,6.0,12.0,56,0.00,,,0.01,Rainwise IP-100,2013-03-16 20:39:00,
2013-03-16 14:44:00,48.0,33.0,26.79,WNW,292,6.0,10.0,55,0.00,,,0.01,Rainwise IP-100,2013-03-16 20:44:00,
2013-03-16 14:49:00,47.0,32.0,26.79,WNW,292,6.0,9.0,55,0.00,,,0.01,Rainwise IP-100,2013-03-16 20:49:00,
2013-03-16 14:54:00,48.0,32.0,26.79,WNW,292,4.0,10.0,53,0.00,,,0.01,Rainwise IP-100,2013-03-16 20:54:00,
2013-03-16 14:59:00,47.0,32.0,26.79,NW,315,3.0,12.0,57,0.00,,,0.01,Rainwise IP-100,2013-03-16 20:59:00,
2013-03-16 15:04:00,48.0,33.0,26.78,WNW,292,5.0,12.0,56,0.00,,,0.01,Rainwise IP-100,2013-03-16 21:04:00,
2013-03-16 15:09:00,48.0,32.0,26.78,West,270,9.0,16.0,54,0.00,,,0.01,Rainwise IP-100,2013-03-16 21:09:00,
2013-03-16 15:14:00,48.0,33.0,26.77,WNW,292,3.0,15.0,57,0.00,,,0.01,Rainwise IP-100,2013-03-16 21:14:00,
2013-03-16 15:19:00,48.0,35.0,26.77,NW,315,5.0,12.0,58,0.00,,,0.01,Rainwise IP-100,2013-03-16 21:19:00,
2013-03-16 15:24:00,48.0,33.0,26.77,NNW,337,3.0,9.0,57,0.00,,,0.01,Rainwise IP-100,2013-03-16 21:24:00,
2013-03-16 15:29:00,47.0,33.0,26.77,WSW,247,6.0,13.0,58,0.00,,,0.01,Rainwise IP-100,2013-03-16 21:29:00,
2013-03-16 15:34:00,48.0,33.0,26.77,NW,315,3.0,10.0,56,0.00,,,0.01,Rainwise IP-100,2013-03-16 21:34:00,
2013-03-16 15:39:00,48.0,33.0,26.77,NW,315,3.0,10.0,56,0.00,,,0.01,Rainwise IP-100,2013-03-16 21:39:00,
2013-03-16 15:44:00,49.0,33.0,26.75,WNW,292,2.0,7.0,54,0.00,,,0.01,Rainwise IP-100,2013-03-16 21:44:00,
2013-03-16 15:49:00,49.0,32.0,26.75,WNW,292,8.0,9.0,52,0.00,,,0.01,Rainwise IP-100,2013-03-16 21:49:00,
2013-03-16 15:54:00,49.0,33.0,26.75,NNE,22,7.0,11.0,53,0.00,,,0.01,Rainwise IP-100,2013-03-16 21:54:00,
2013-03-16 15:59:00,48.0,32.0,26.75,NNE,22,4.0,10.0,54,0.00,,,0.01,Rainwise IP-100,2013-03-16 21:59:00,
2013-03-16 16:04:00,48.0,32.0,26.75,WNW,292,5.0,10.0,54,0.00,,,0.01,Rainwise IP-100,2013-03-16 22:04:00,
2013-03-16 16:09:00,48.0,33.0,26.75,West,270,6.0,11.0,55,0.00,,,0.01,Rainwise IP-100,2013-03-16 22:09:00,
2013-03-16 16:14:00,48.0,32.0,26.75,WNW,292,6.0,16.0,54,0.00,,,0.01,Rainwise IP-100,2013-03-16 22:14:00,
2013-03-16 16:19:00,48.0,33.0,26.75,SSE,157,4.0,15.0,57,0.00,,,0.01,Rainwise IP-100,2013-03-16 22:19:00,
2013-03-16 16:24:00,45.0,36.0,26.77,WSW,247,10.0,26.0,69,0.00,,,0.01,Rainwise IP-100,2013-03-16 22:24:00,
2013-03-16 16:29:00,44.0,36.0,26.77,WNW,292,10.0,19.0,74,0.00,,,0.01,Rainwise IP-100,2013-03-16 22:29:00,
2013-03-16 16:34:00,44.0,36.0,26.77,NW,315,7.0,13.0,73,0.00,,,0.01,Rainwise IP-100,2013-03-16 22:34:00,
2013-03-16 16:39:00,44.0,36.0,26.77,NW,315,6.0,12.0,74,0.00,,,0.01,Rainwise IP-100,2013-03-16 22:39:00,
2013-03-16 16:44:00,45.0,38.0,26.76,NNE,22,3.0,9.0,75,0.00,,,0.01,Rainwise IP-100,2013-03-16 22:44:00,
2013-03-16 16:49:00,45.0,36.0,26.76,NNW,337,3.0,6.0,71,0.00,,,0.01,Rainwise IP-100,2013-03-16 22:49:00,
2013-03-16 16:54:00,46.0,36.0,26.75,NNW,337,5.0,6.0,69,0.00,,,0.01,Rainwise IP-100,2013-03-16 22:54:00,
2013-03-16 16:59:00,46.0,35.0,26.75,ESE,112,4.0,7.0,66,0.00,,,0.01,Rainwise IP-100,2013-03-16 22:59:00,
2013-03-16 17:04:00,46.0,35.0,26.75,NE,45,4.0,7.0,65,0.00,,,0.01,Rainwise IP-100,2013-03-16 23:04:00,
2013-03-16 17:09:00,46.0,35.0,26.75,ESE,112,6.0,9.0,64,0.00,,,0.01,Rainwise IP-100,2013-03-16 23:09:00,
2013-03-16 17:14:00,47.0,35.0,26.73,East,90,4.0,8.0,61,0.00,,,0.01,Rainwise IP-100,2013-03-16 23:14:00,
2013-03-16 17:19:00,47.0,32.0,26.73,North,360,4.0,6.0,57,0.00,,,0.01,Rainwise IP-100,2013-03-16 23:19:00,
2013-03-16 17:24:00,48.0,33.0,26.72,NW,315,4.0,7.0,57,0.00,,,0.01,Rainwise IP-100,2013-03-16 23:24:00,
2013-03-16 17:29:00,48.0,33.0,26.72,NE,45,3.0,6.0,57,0.00,,,0.01,Rainwise IP-100,2013-03-16 23:29:00,
2013-03-16 17:34:00,48.0,33.0,26.71,NNE,22,4.0,9.0,55,0.00,,,0.01,Rainwise IP-100,2013-03-16 23:34:00,
2013-03-16 17:39:00,48.0,33.0,26.71,WNW,292,1.0,6.0,55,0.00,,,0.01,Rainwise IP-100,2013-03-16 23:39:00,
2013-03-16 17:44:00,49.0,32.0,26.71,NW,315,5.0,9.0,52,0.00,,,0.01,Rainwise IP-100,2013-03-16 23:44:00,
2013-03-16 17:49:00,49.0,33.0,26.71,West,270,2.0,9.0,53,0.00,,,0.01,Rainwise IP-100,2013-03-16 23:49:00,
2013-03-16 17:54:00,49.0,32.0,26.71,NNW,337,6.0,9.0,52,0.00,,,0.01,Rainwise IP-100,2013-03-16 23:54:00,
2013-03-16 17:59:00,49.0,33.0,26.71,NW,315,4.0,9.0,54,0.00,,,0.01,Rainwise IP-100,2013-03-16 23:59:00,
2013-03-16 18:04:00,49.0,33.0,26.70,NW,315,3.0,10.0,53,0.00,,,0.01,Rainwise IP-100,2013-03-17 00:04:00,
2013-03-16 18:09:00,49.0,32.0,26.70,WNW,292,3.0,9.0,52,0.00,,,0.01,Rainwise IP-100,2013-03-17 00:09:00,
2013-03-16 18:14:00,49.0,32.0,26.69,NNW,337,6.0,10.0,51,0.00,,,0.01,Rainwise IP-100,2013-03-17 00:14:00,
2013-03-16 18:19:00,48.0,32.0,26.69,NW,315,5.0,9.0,52,0.00,,,0.01,Rainwise IP-100,2013-03-17 00:19:00,
2013-03-16 18:24:00,49.0,32.0,26.69,NW,315,4.0,7.0,52,0.00,,,0.01,Rainwise IP-100,2013-03-17 00:24:00,
2013-03-16 18:29:00,48.0,32.0,26.69,NNW,337,4.0,7.0,53,0.00,,,0.01,Rainwise IP-100,2013-03-17 00:29:00,
2013-03-16 18:34:00,48.0,32.0,26.69,NW,315,6.0,9.0,52,0.00,,,0.01,Rainwise IP-100,2013-03-17 00:34:00,
2013-03-16 18:39:00,48.0,32.0,26.69,NNW,337,1.0,10.0,53,0.00,,,0.01,Rainwise IP-100,2013-03-17 00:39:00,
2013-03-16 18:44:00,48.0,32.0,26.68,NNW,337,5.0,7.0,53,0.00,,,0.01,Rainwise IP-100,2013-03-17 00:44:00,
2013-03-16 18:49:00,48.0,32.0,26.68,NNW,337,6.0,9.0,53,0.00,,,0.01,Rainwise IP-100,2013-03-17 00:49:00,
2013-03-16 18:54:00,48.0,32.0,26.68,WNW,292,3.0,10.0,53,0.00,,,0.01,Rainwise IP-100,2013-03-17 00:54:00,
2013-03-16 18:59:00,48.0,32.0,26.68,NW,315,5.0,9.0,52,0.00,,,0.01,Rainwise IP-100,2013-03-17 00:59:00,
2013-03-16 19:04:00,48.0,32.0,26.67,NW,315,3.0,10.0,52,0.00,,,0.01,Rainwise IP-100,2013-03-17 01:04:00,
2013-03-16 19:09:00,47.0,31.0,26.67,NNW,337,6.0,12.0,53,0.00,,,0.01,Rainwise IP-100,2013-03-17 01:09:00,
2013-03-16 19:14:00,47.0,31.0,26.68,NW,315,8.0,12.0,52,0.00,,,0.01,Rainwise IP-100,2013-03-17 01:14:00,
2013-03-16 19:19:00,47.0,31.0,26.68,NW,315,3.0,12.0,54,0.00,,,0.01,Rainwise IP-100,2013-03-17 01:19:00,
2013-03-16 19:24:00,47.0,31.0,26.67,WNW,292,5.0,12.0,54,0.00,,,0.01,Rainwise IP-100,2013-03-17 01:24:00,
2013-03-16 19:30:00,46.0,31.0,26.67,WNW,292,3.0,10.0,55,0.00,,,0.01,Rainwise IP-100,2013-03-17 01:30:00,
2013-03-16 19:35:00,46.0,31.0,26.68,NW,315,4.0,10.0,55,0.00,,,0.01,Rainwise IP-100,2013-03-17 01:35:00,
2013-03-16 19:40:00,46.0,32.0,26.68,NW,315,6.0,7.0,57,0.00,,,0.01,Rainwise IP-100,2013-03-17 01:40:00,
2013-03-16 19:45:00,46.0,31.0,26.67,WNW,292,3.0,9.0,56,0.00,,,0.01,Rainwise IP-100,2013-03-17 01:45:00,
2013-03-16 19:50:00,46.0,31.0,26.67,NNW,337,7.0,9.0,56,0.00,,,0.01,Rainwise IP-100,2013-03-17 01:50:00,
2013-03-16 19:55:00,46.0,31.0,26.67,WNW,292,3.0,9.0,56,0.00,,,0.01,Rainwise IP-100,2013-03-17 01:55:00,
2013-03-16 20:00:00,46.0,32.0,26.67,NW,315,4.0,7.0,57,0.00,,,0.01,Rainwise IP-100,2013-03-17 02:00:00,
2013-03-16 20:05:00,46.0,32.0,26.67,NW,315,5.0,7.0,57,0.00,,,0.01,Rainwise IP-100,2013-03-17 02:05:00,
2013-03-16 20:10:00,45.0,31.0,26.67,WNW,292,4.0,7.0,58,0.00,,,0.01,Rainwise IP-100,2013-03-17 02:10:00,
2013-03-16 20:15:00,46.0,32.0,26.67,WNW,292,5.0,6.0,57,0.00,,,0.01,Rainwise IP-100,2013-03-17 02:15:00,
2013-03-16 20:20:00,45.0,32.0,26.67,NW,315,5.0,9.0,59,0.00,,,0.01,Rainwise IP-100,2013-03-17 02:20:00,
2013-03-16 20:25:00,45.0,31.0,26.68,WNW,292,5.0,9.0,57,0.00,,,0.01,Rainwise IP-100,2013-03-17 02:25:00,
2013-03-16 20:30:00,45.0,31.0,26.68,WSW,247,6.0,13.0,57,0.00,,,0.01,Rainwise IP-100,2013-03-17 02:30:00,
2013-03-16 20:35:00,45.0,31.0,26.68,West,270,3.0,10.0,57,0.00,,,0.01,Rainwise IP-100,2013-03-17 02:35:00,
2013-03-16 20:40:00,45.0,31.0,26.68,West,270,3.0,13.0,57,0.00,,,0.01,Rainwise IP-100,2013-03-17 02:40:00,
2013-03-16 20:45:00,45.0,31.0,26.67,SSW,202,3.0,9.0,57,0.00,,,0.01,Rainwise IP-100,2013-03-17 02:45:00,
2013-03-16 20:50:00,45.0,32.0,26.67,South,180,5.0,12.0,59,0.00,,,0.01,Rainwise IP-100,2013-03-17 02:50:00,
2013-03-16 20:55:00,45.0,32.0,26.68,WSW,247,4.0,12.0,59,0.00,,,0.01,Rainwise IP-100,2013-03-17 02:55:00,
2013-03-16 21:00:00,44.0,32.0,26.68,SW,225,4.0,12.0,61,0.00,,,0.01,Rainwise IP-100,2013-03-17 03:00:00,
2013-03-16 21:05:00,44.0,32.0,26.69,West,270,5.0,13.0,61,0.00,,,0.01,Rainwise IP-100,2013-03-17 03:05:00,
2013-03-16 21:10:00,44.0,32.0,26.69,South,180,4.0,9.0,62,0.00,,,0.01,Rainwise IP-100,2013-03-17 03:10:00,
2013-03-16 21:15:00,44.0,32.0,26.68,SSW,202,1.0,9.0,63,0.00,,,0.01,Rainwise IP-100,2013-03-17 03:15:00,
2013-03-16 21:20:00,43.0,32.0,26.68,WSW,247,6.0,8.0,64,0.00,,,0.01,Rainwise IP-100,2013-03-17 03:20:00,
2013-03-16 21:25:00,43.0,32.0,26.69,WSW,247,1.0,7.0,66,0.00,,,0.01,Rainwise IP-100,2013-03-17 03:25:00,
2013-03-16 21:30:00,43.0,33.0,26.69,WSW,247,2.0,7.0,67,0.00,,,0.01,Rainwise IP-100,2013-03-17 03:30:00,
2013-03-16 21:35:00,43.0,33.0,26.68,SW,225,4.0,6.0,68,0.00,,,0.01,Rainwise IP-100,2013-03-17 03:35:00,
2013-03-16 21:40:00,42.0,33.0,26.68,South,180,5.0,6.0,72,0.00,,,0.01,Rainwise IP-100,2013-03-17 03:40:00,
2013-03-16 21:45:00,42.0,33.0,26.69,SW,225,0.0,6.0,72,0.00,,,0.01,Rainwise IP-100,2013-03-17 03:45:00,
2013-03-16 21:50:00,42.0,33.0,26.69,SW,225,1.0,1.0,72,0.00,,,0.01,Rainwise IP-100,2013-03-17 03:50:00,
2013-03-16 21:55:00,42.0,35.0,26.69,WSW,247,1.0,5.0,73,0.00,,,0.01,Rainwise IP-100,2013-03-17 03:55:00,
2013-03-16 22:00:00,42.0,35.0,26.69,WSW,247,1.0,2.0,73,0.00,,,0.01,Rainwise IP-100,2013-03-17 04:00:00,
2013-03-16 22:01:00,42.0,35.0,26.69,WSW,247,2.0,2.0,73,0.00,,,0.01,Rainwise IP-100,2013-03-17 04:01:00,
2013-03-16 22:06:00,41.0,35.0,26.68,WSW,247,0.0,3.0,76,0.00,,,0.01,Rainwise IP-100,2013-03-17 04:06:00,
2013-03-16 22:11:00,41.0,35.0,26.68,SW,225,0.0,4.0,76,0.00,,,0.01,Rainwise IP-100,2013-03-17 04:11:00,
2013-03-16 22:16:00,41.0,35.0,26.68,SW,225,0.0,1.0,77,0.00,,,0.01,Rainwise IP-100,2013-03-17 04:16:00,
2013-03-16 22:21:00,41.0,35.0,26.68,SW,225,0.0,2.0,78,0.00,,,0.01,Rainwise IP-100,2013-03-17 04:21:00,
2013-03-16 22:26:00,41.0,35.0,26.68,SW,225,0.0,2.0,76,0.00,,,0.01,Rainwise IP-100,2013-03-17 04:26:00,
2013-03-16 22:31:00,41.0,35.0,26.68,SW,225,0.0,3.0,78,0.00,,,0.01,Rainwise IP-100,2013-03-17 04:31:00,
2013-03-16 22:36:00,41.0,36.0,26.68,SW,225,0.0,1.0,79,0.00,,,0.01,Rainwise IP-100,2013-03-17 04:36:00,
2013-03-16 22:41:00,40.0,35.0,26.68,SW,225,0.0,0.0,81,0.00,,,0.01,Rainwise IP-100,2013-03-17 04:41:00,
2013-03-16 22:46:00,40.0,35.0,26.67,SW,225,0.0,0.0,81,0.00,,,0.01,Rainwise IP-100,2013-03-17 04:46:00,
2013-03-16 22:47:00,40.0,35.0,26.67,SW,225,0.0,0.0,81,0.00,,,0.01,Rainwise IP-100,2013-03-17 04:47:00,
2013-03-16 22:52:00,40.0,35.0,26.67,SW,225,0.0,0.0,80,0.00,,,0.01,Rainwise IP-100,2013-03-17 04:52:00,
2013-03-16 22:57:00,40.0,35.0,26.67,SW,225,0.0,0.0,80,0.00,,,0.01,Rainwise IP-100,2013-03-17 04:57:00,
2013-03-16 23:02:00,40.0,35.0,26.67,South,180,3.0,5.0,80,0.00,,,0.01,Rainwise IP-100,2013-03-17 05:02:00,
2013-03-16 23:07:00,40.0,35.0,26.67,South,180,2.0,4.0,79,0.00,,,0.01,Rainwise IP-100,2013-03-17 05:07:00,
2013-03-16 23:12:00,40.0,35.0,26.67,ESE,112,4.0,6.0,80,0.00,,,0.01,Rainwise IP-100,2013-03-17 05:12:00,
2013-03-16 23:17:00,41.0,36.0,26.66,SSE,157,3.0,7.0,79,0.00,,,0.01,Rainwise IP-100,2013-03-17 05:17:00,
2013-03-16 23:22:00,41.0,36.0,26.66,SSE,157,3.0,6.0,79,0.00,,,0.01,Rainwise IP-100,2013-03-17 05:22:00,
2013-03-16 23:27:00,41.0,36.0,26.65,South,180,1.0,4.0,80,0.00,,,0.01,Rainwise IP-100,2013-03-17 05:27:00,
2013-03-16 23:32:00,40.0,35.0,26.65,SSW,202,0.0,2.0,80,0.00,,,0.01,Rainwise IP-100,2013-03-17 05:32:00,
2013-03-16 23:37:00,40.0,35.0,26.65,SW,225,0.0,1.0,79,0.00,,,0.01,Rainwise IP-100,2013-03-17 05:37:00,
2013-03-16 23:42:00,40.0,35.0,26.65,SW,225,0.0,1.0,79,0.00,,,0.01,Rainwise IP-100,2013-03-17 05:42:00,
2013-03-16 23:47:00,40.0,35.0,26.65,SW,225,3.0,3.0,80,0.00,,,0.01,Rainwise IP-100,2013-03-17 05:47:00,
2013-03-16 23:52:00,40.0,35.0,26.65,West,270,0.0,3.0,80,0.00,,,0.01,Rainwise IP-100,2013-03-17 05:52:00,
2013-03-16 23:57:00,40.0,35.0,26.65,WNW,292,4.0,6.0,80,0.00,,,0.01,Rainwise IP-100,2013-03-17 05:57:00,